Terug naar catalogus

STARLINK-1453

ActiefCommunicatieVLEO
NORAD 45670·PAYLOAD·🇺🇸 United States

Gelanceerd Jun 4, 2020 vanaf Cape Canaveral Space Force Station

Loading…

Volgende Passages (komende 24 uur)

TLE

VersSource: CelesTrak SupGP

Epoch: Sep 15, 2026, 01:51 UTC

1 45670C 20035P   26258.07756944  .00460530  00000+0  74326-3 0  2587
2 45670  53.0274 153.6192 0001288 115.9703 241.5826 16.02523741    17

Volg STARLINK-1453 in realtime met AllMySat

Download on the App Store